Weather History for KSHD - September, 2012

Change the Weather History Date:

Wednesday, September 12, 2012

  Actual Average Record
Temperature  
Mean Temperature 62 °F -  
Max Temperature 79 °F 79 °F 95 °F (1998)
Min Temperature 44 °F 55 °F 44 °F (2012)
Degree Days  
Heating Degree Days 4    
Growing Degree Days 12 (Base 50)    
Moisture  
Dew Point 51 °F    
Average Humidity 70    
Maximum Humidity 95    
Minimum Humidity 38    
Precipitation  
Precipitation 0.00 in - - ()
Sea Level Pressure  
Sea Level Pressure 30.36 in    
Wind  
Wind Speed 1 mph (SSE)    
Max Wind Speed 9 mph    
Max Gust Speed -    
Visibility 9 miles    
Events Fog    
Averages and records for this station are not official NWS values.
T = Trace of Precipitation, MM = Missing Value Source: NWS Daily Summary

Daily Weather History Graph

Daily Weather History Graph

Search for Another Location

Airport or City:

Trip Planner

Search our weather history database for the weather conditions in past years. The results will help you decide how hot, cold, wet, or windy it might be!

Date:

Astronomy

Sep. 12, 2012 Rise Set
Actual Time 6:55 AM EDT 7:27 PM EDT
Civil Twilight 6:28 AM EDT 7:54 PM EDT
Nautical Twilight 5:57 AM EDT 8:25 PM EDT
Astronomical Twilight 5:25 AM EDT 8:57 PM EDT
Moon 3:12 AM EDT (9/12) 5:12 PM EDT (9/12)
Length of Visible Light 13h 25m
Length of Day
12h 32m
Waning Crescent, 14% of the Moon is Illuminated
Sep 12
Waning Crescent
Sep 15
New
Sep 22
First Quarter
Sep 29
Full
Oct 8
Last Quarter

Hourly Weather History & Observations

Time (EDT) Temp. Dew Point Humidity Pressure Visibility Wind Dir Wind Speed Gust Speed Precip Events Conditions
12:15 AM 51.8 °F 48.6 °F 89% 30.35 in 10.0 mi Calm Calm - N/A   Clear
12:35 AM 51.8 °F 49.1 °F 90% 30.35 in 10.0 mi Calm Calm - N/A   Clear
12:55 AM 51.3 °F 48.4 °F 90% 30.35 in 10.0 mi Calm Calm - N/A   Clear
1:35 AM 50.9 °F 48.6 °F 92% 30.35 in 10.0 mi Calm Calm - N/A   Clear
1:55 AM 48.9 °F 46.6 °F 92% 30.35 in 10.0 mi Calm Calm - N/A   Clear
2:15 AM 50.0 °F 48.0 °F 93% 30.35 in 10.0 mi Calm Calm - N/A   Clear
2:35 AM 49.3 °F 47.1 °F 92% 30.35 in 3.0 mi Calm Calm - N/A   Clear
2:55 AM 48.0 °F 45.7 °F 92% 30.35 in 4.0 mi Calm Calm - N/A   Scattered Clouds
3:15 AM 48.6 °F 46.9 °F 94% 30.35 in 0.5 mi Calm Calm - N/A Fog Fog
3:35 AM 46.4 °F 44.6 °F 93% 30.35 in 4.0 mi Calm Calm - N/A   Mostly Cloudy
3:55 AM 46.9 °F 45.5 °F 95% 30.35 in 1.2 mi Calm Calm - N/A   Mostly Cloudy
4:15 AM 47.7 °F 46.4 °F 95% 30.35 in 10.0 mi Calm Calm - N/A   Scattered Clouds
4:55 AM 46.8 °F 44.8 °F 93% 30.35 in 10.0 mi Calm Calm - N/A   Scattered Clouds
5:15 AM 46.2 °F 44.4 °F 93% 30.35 in 4.0 mi Calm Calm - N/A   Scattered Clouds
5:35 AM 46.9 °F 45.1 °F 93% 30.35 in 10.0 mi Calm Calm - N/A   Clear
5:55 AM 46.9 °F 45.3 °F 94% 30.36 in 10.0 mi Calm Calm - N/A   Clear
6:15 AM 46.2 °F 44.2 °F 93% 30.36 in 7.0 mi Calm Calm - N/A   Clear
6:35 AM 45.7 °F 43.2 °F 91% 30.37 in 10.0 mi Calm Calm - N/A   Clear
6:55 AM 44.6 °F 42.1 °F 91% 30.37 in 10.0 mi Calm Calm - N/A   Scattered Clouds
7:15 AM 46.4 °F 44.6 °F 93% 30.37 in 10.0 mi Calm Calm - N/A   Scattered Clouds
7:35 AM 45.3 °F 43.3 °F 93% 30.38 in 5.0 mi Calm Calm - N/A   Scattered Clouds
7:55 AM 47.7 °F 46.0 °F 94% 30.39 in 10.0 mi Calm Calm - N/A   Clear
8:15 AM 50.4 °F 48.2 °F 92% 30.39 in 10.0 mi Calm Calm - N/A   Clear
8:35 AM 52.3 °F 49.3 °F 89% 30.39 in 10.0 mi Calm Calm - N/A   Clear
8:55 AM 54.9 °F 50.7 °F 86% 30.39 in 10.0 mi Calm Calm - N/A   Clear
9:15 AM 57.2 °F 51.4 °F 81% 30.39 in 10.0 mi Calm Calm - N/A   Clear
9:35 AM 59.5 °F 52.7 °F 78% 30.40 in 10.0 mi Calm Calm - N/A   Clear
9:55 AM 62.1 °F 53.2 °F 73% 30.40 in 10.0 mi Calm Calm - N/A   Clear
10:15 AM 65.1 °F 53.6 °F 66% 30.40 in 10.0 mi Calm Calm - N/A   Clear
10:35 AM 67.6 °F 53.1 °F 59% 30.40 in 10.0 mi SSW 3.5 mph - N/A   Clear
10:55 AM 68.2 °F 53.1 °F 58% 30.40 in 10.0 mi Calm Calm - N/A   Clear
11:15 AM 69.8 °F 54.1 °F 57% 30.39 in 10.0 mi WSW 4.6 mph - N/A   Clear
11:35 AM 71.2 °F 54.5 °F 55% 30.39 in 10.0 mi Calm Calm - N/A   Clear
11:55 AM 73.4 °F 53.4 °F 49% 30.39 in 10.0 mi Calm Calm - N/A   Clear
12:15 PM 74.8 °F 53.2 °F 47% 30.38 in 10.0 mi South 3.5 mph - N/A   Clear
12:35 PM 75.6 °F 52.3 °F 44% 30.37 in 10.0 mi West 3.5 mph - N/A   Clear
12:55 PM 75.9 °F 51.1 °F 42% 30.37 in 10.0 mi Calm Calm - N/A   Clear
1:15 PM 77.0 °F 49.6 °F 38% 30.37 in 10.0 mi Calm Calm - N/A   Clear
1:35 PM 77.9 °F 52.2 °F 41% 30.37 in 10.0 mi ENE 3.5 mph - N/A   Clear
1:55 PM 77.9 °F 52.0 °F 40% 30.36 in 10.0 mi East 4.6 mph - N/A   Clear
2:15 PM 77.9 °F 52.0 °F 40% 30.35 in 10.0 mi SE 3.5 mph - N/A   Clear
2:35 PM 78.8 °F 52.0 °F 39% 30.35 in 10.0 mi South 4.6 mph - N/A   Clear
2:55 PM 79.2 °F 53.4 °F 41% 30.34 in 10.0 mi SSE 8.1 mph - N/A   Scattered Clouds
3:15 PM 79.0 °F 54.0 °F 42% 30.34 in 10.0 mi SSE 8.1 mph - N/A   Scattered Clouds
3:35 PM 78.6 °F 53.6 °F 42% 30.33 in 10.0 mi South 3.5 mph - N/A   Clear
3:55 PM 78.8 °F 53.8 °F 42% 30.33 in 10.0 mi SE 5.8 mph - N/A   Clear
4:15 PM 78.1 °F 53.2 °F 42% 30.33 in 10.0 mi ESE 4.6 mph - N/A   Clear
4:35 PM 78.8 °F 53.4 °F 41% 30.33 in 10.0 mi South 6.9 mph - N/A   Clear
4:55 PM 78.3 °F 53.1 °F 41% 30.33 in 10.0 mi South 4.6 mph - N/A   Clear
5:15 PM 77.2 °F 53.1 °F 43% 30.33 in 10.0 mi SSE 9.2 mph - N/A   Clear
5:55 PM 76.5 °F 52.7 °F 43% 30.33 in 10.0 mi SE 5.8 mph - N/A   Clear
6:15 PM 75.4 °F 53.1 °F 46% 30.33 in 10.0 mi SE 6.9 mph - N/A   Clear
6:35 PM 74.1 °F 53.6 °F 49% 30.34 in 10.0 mi SE 4.6 mph - N/A   Clear
6:55 PM 72.7 °F 53.6 °F 51% 30.33 in 10.0 mi SE 4.6 mph - N/A   Clear
7:15 PM 71.6 °F 54.0 °F 54% 30.34 in 10.0 mi SSE 3.5 mph - N/A   Clear
7:35 PM 70.0 °F 54.3 °F 57% 30.34 in 10.0 mi Calm Calm - N/A   Clear
7:55 PM 68.9 °F 54.5 °F 60% 30.35 in 10.0 mi Calm Calm - N/A   Clear
8:15 PM 65.7 °F 55.2 °F 69% 30.35 in 10.0 mi Calm Calm - N/A   Clear
8:35 PM 63.1 °F 55.0 °F 75% 30.36 in 10.0 mi Calm Calm - N/A   Clear
8:55 PM 63.1 °F 54.7 °F 74% 30.36 in 10.0 mi Calm Calm - N/A   Clear
9:15 PM 61.9 °F 54.5 °F 77% 30.37 in 10.0 mi Calm Calm - N/A   Clear
9:35 PM 60.4 °F 53.6 °F 78% 30.37 in 10.0 mi Calm Calm - N/A   Clear
9:55 PM 60.4 °F 53.8 °F 79% 30.37 in 10.0 mi Calm Calm - N/A   Clear
10:15 PM 59.0 °F 53.4 °F 82% 30.38 in 10.0 mi Calm Calm - N/A   Clear
10:35 PM 58.5 °F 52.9 °F 82% 30.38 in 10.0 mi Calm Calm - N/A   Clear
10:55 PM 56.5 °F 52.7 °F 87% 30.38 in 10.0 mi Calm Calm - N/A   Clear
11:15 PM 57.0 °F 52.3 °F 84% 30.38 in 10.0 mi Calm Calm - N/A   Clear
11:35 PM 55.8 °F 51.1 °F 84% 30.38 in 10.0 mi Calm Calm - N/A   Clear
11:55 PM 54.5 °F 50.5 °F 86% 30.37 in 10.0 mi Calm Calm - N/A   Clear